Date String (YYYY-MM-DD hh:mm:ss) UTC,Instrument flags,absolute air pressure of the measurement (hPa),sample flow rate (lpm),inlet stack bypass flow (lpm),air temperature of the measurement (°C),ambient temperature measured by the external sensor (°C),aerosol sample conditioner tube jacket temperature (°C),OPC LED temperature (°C),internal box temperature (°C),relative humidity of the measurement (%),span deviation,mass concentration of particles derived from Lorenz-Mie calculation of OPC scattering (μg/m³),mass concentration of particles derived from Lorenz-Mie calculation of OPC scattering (μg/m³),mass concentration of particles derived from Lorenz-Mie calculation of OPC scattering (μg/m³)
DateTimeUTC,F1_M11,P_M11,Q1_M11,Q2_M11,T1_M11,T2_M11,T3_M11,T4_M11,T5_M11,U1_M11,ZSPAN_M11,X2_M11,X0_M11,X1_M11
2023-07-18 13:00:00,SystemResetWarning,0832.6,5.00,000.00,029.4,028.2,000.0,037.8,031.1,16.1,0000.0,0004.71,0008.32,0004.15
2023-07-18 13:01:00,SystemResetWarning,0832.6,4.99,000.00,029.4,028.3,000.0,037.8,031.1,15.7,0000.0,0004.71,0008.32,0004.15
2023-07-18 13:02:00,SystemResetWarning,0832.7,5.00,000.00,029.5,028.3,000.0,037.8,031.2,15.7,0000.0,0004.70,0008.69,0004.15
2023-07-18 13:03:00,SystemResetWarning,0832.6,5.00,000.00,029.5,026.9,000.0,037.7,031.0,16.5,0000.0,0004.72,0009.19,0004.16
2023-07-18 13:04:00,SystemResetWarning,0832.6,5.01,000.00,029.4,025.1,000.0,037.6,030.8,16.1,0000.0,0004.69,0009.07,0004.17
2023-07-18 13:05:00,SystemResetWarning,0832.6,5.01,000.00,029.3,025.1,000.0,037.5,030.6,16.1,0000.0,0004.68,0009.09,0004.17
2023-07-18 13:06:00,SystemResetWarning,0832.6,5.00,000.00,029.2,025.4,000.0,037.6,030.4,16.0,0000.0,0004.69,0009.26,0004.16
2023-07-18 13:07:00,SystemResetWarning,0832.6,5.00,000.00,029.2,025.8,000.0,037.6,030.5,16.0,0000.0,0004.67,0009.81,0004.15
2023-07-18 13:08:00,SystemResetWarning,0832.6,5.00,000.00,029.2,026.2,000.0,037.6,030.6,15.7,0000.0,0004.65,0009.77,0004.14
2023-07-18 13:09:00,SystemResetWarning,0832.6,5.00,000.00,029.2,026.6,000.0,037.7,030.6,16.0,0000.0,0004.68,0009.70,0004.14
2023-07-18 13:10:00,SystemResetWarning,0832.6,5.00,000.00,029.2,026.9,000.0,037.7,030.7,15.8,0000.0,0004.70,0009.73,0004.13
2023-07-18 13:11:00,SystemResetWarning,0832.6,4.99,000.00,029.2,027.2,000.0,037.7,030.8,15.6,0000.0,0004.69,0009.73,0004.13
2023-07-18 13:12:00,SystemResetWarning,0832.6,5.01,000.00,029.2,027.5,000.0,037.7,030.8,15.8,0000.0,0004.66,0009.79,0004.11
2023-07-18 13:13:00,SystemResetWarning,0832.7,5.00,000.00,029.2,027.7,000.0,037.7,030.9,16.4,0000.0,0004.63,0009.40,0004.09
2023-07-18 13:14:00,SystemResetWarning,0832.7,5.00,000.00,029.3,027.8,000.0,037.7,030.9,16.1,0000.0,0004.64,0009.74,0004.08
2023-07-18 13:15:00,SystemResetWarning,0832.7,5.00,000.00,029.3,028.0,000.0,037.7,031.0,15.9,0000.0,0004.66,0009.99,0004.08
2023-07-18 13:16:00,SystemResetWarning,0832.7,5.00,000.00,029.3,028.1,000.0,037.7,031.0,16.0,0000.0,0004.66,0010.22,0004.07
2023-07-18 13:17:00,SystemResetWarning,0832.7,5.00,000.00,029.4,028.2,000.0,037.8,031.1,16.5,0000.0,0004.64,0010.40,0004.08
2023-07-18 13:18:00,SystemResetWarning,0832.7,4.99,000.00,029.4,028.3,000.0,037.8,031.1,16.7,0000.0,0004.64,0009.90,0004.10
2023-07-18 13:19:00,SystemResetWarning,0832.7,4.99,000.00,029.5,027.7,000.0,037.8,031.1,16.7,0000.0,0004.67,0010.50,0004.12
2023-07-18 13:20:00,SystemResetWarning,0832.7,5.00,000.00,029.4,026.0,000.0,037.6,030.9,16.9,0000.0,0004.67,0010.62,0004.14
2023-07-18 13:21:00,SystemResetWarning,0832.7,5.01,000.00,029.4,025.8,000.0,037.6,030.8,16.8,0000.0,0004.67,0010.80,0004.15
2023-07-18 13:22:00,SystemResetWarning,0832.6,4.99,000.00,029.3,026.0,000.0,037.6,030.6,16.7,0000.0,0004.67,0010.85,0004.17
2023-07-18 13:23:00,SystemResetWarning,0832.7,5.00,000.00,029.3,026.4,000.0,037.7,030.6,17.2,0000.0,0004.69,0010.69,0004.19
2023-07-18 13:24:00,SystemResetWarning,0832.7,5.00,000.00,029.3,026.7,000.0,037.7,030.7,17.3,0000.0,0004.73,0010.76,0004.21
2023-07-18 13:25:00,SystemResetWarning,0832.7,5.00,000.00,029.3,027.0,000.0,037.7,030.8,17.4,0000.0,0004.75,0010.50,0004.24
2023-07-18 13:26:00,SystemResetWarning,0832.6,4.99,000.00,029.3,027.3,000.0,037.7,030.8,17.3,0000.0,0004.74,0010.60,0004.25
2023-07-18 13:27:00,SystemResetWarning,0832.6,5.00,000.00,029.3,027.6,000.0,037.7,030.9,17.0,0000.0,0004.73,0010.43,0004.26
2023-07-18 13:28:00,SystemResetWarning,0832.7,5.00,000.00,029.3,027.7,000.0,037.8,031.0,17.1,0000.0,0004.71,0009.99,0004.26
2023-07-18 13:29:00,SystemResetWarning,0832.7,5.00,000.00,029.4,027.9,000.0,037.8,031.0,17.4,0000.0,0004.71,0010.02,0004.25
2023-07-18 13:30:00,SystemResetWarning,0832.6,5.00,000.00,029.4,028.1,000.0,037.8,031.0,18.0,0000.0,0004.75,0009.31,0004.26
2023-07-18 13:31:00,SystemResetWarning,0832.7,5.00,000.00,029.4,028.2,000.0,037.8,031.1,17.9,0000.0,0004.75,0009.28,0004.26
2023-07-18 13:32:00,SystemResetWarning,0832.7,5.00,000.00,029.5,028.1,000.0,037.8,031.1,17.8,0000.0,0004.75,0009.69,0004.25
2023-07-18 13:33:00,SystemResetWarning,0832.7,4.99,000.00,029.4,026.6,000.0,037.7,030.9,18.3,0000.0,0004.75,0009.93,0004.25
2023-07-18 13:34:00,SystemResetWarning,0832.6,5.01,000.00,029.4,026.0,000.0,037.6,030.8,18.5,0000.0,0004.79,0010.86,0004.26
2023-07-18 13:35:00,SystemResetWarning,0832.6,5.00,000.00,029.3,026.2,000.0,037.6,030.7,18.9,0000.0,0004.82,0010.91,0004.26
2023-07-18 13:36:00,SystemResetWarning,0832.7,4.99,000.00,029.3,026.5,000.0,037.7,030.7,18.5,0000.0,0004.83,0011.00,0004.26
2023-07-18 13:37:00,SystemResetWarning,0832.6,5.00,000.00,029.3,026.9,000.0,037.7,030.7,18.7,0000.0,0004.89,0011.60,0004.26
2023-07-18 13:38:00,SystemResetWarning,0832.7,5.00,000.00,029.3,027.2,000.0,037.7,030.8,18.7,0000.0,0004.95,0012.04,0004.26
2023-07-18 13:39:00,SystemResetWarning,0832.6,5.00,000.00,029.3,027.4,000.0,037.8,030.9,18.5,0000.0,0004.97,0012.08,0004.26
2023-07-18 13:40:00,SystemResetWarning,0832.6,4.99,000.00,029.3,027.7,000.0,037.8,031.0,18.2,0000.0,0004.96,0012.03,0004.25
2023-07-18 13:41:00,SystemResetWarning,0832.6,5.00,000.00,029.4,027.9,000.0,037.8,031.0,18.8,0000.0,0004.94,0012.03,0004.24
2023-07-18 13:42:00,SystemResetWarning,0832.6,4.99,000.00,029.4,028.0,000.0,037.8,031.1,18.5,0000.0,0004.99,0012.22,0004.24
2023-07-18 13:43:00,SystemResetWarning,0832.6,5.00,000.00,029.4,028.1,000.0,037.8,031.1,18.4,0000.0,0005.01,0012.68,0004.25
2023-07-18 13:44:00,SystemResetWarning,0832.6,5.00,000.00,029.5,027.0,000.0,037.7,031.0,18.2,0000.0,0005.01,0012.49,0004.25
2023-07-18 13:45:00,SystemResetWarning,0832.5,5.01,000.00,029.4,025.5,000.0,037.6,030.8,18.4,0000.0,0005.00,0011.84,0004.25
2023-07-18 13:46:00,SystemResetWarning,0832.5,5.01,000.00,029.3,025.4,000.0,037.6,030.7,18.4,0000.0,0005.01,0012.34,0004.26
2023-07-18 13:47:00,SystemResetWarning,0832.5,5.01,000.00,029.2,025.8,000.0,037.6,030.5,19.0,0000.0,0005.00,0012.03,0004.26
2023-07-18 13:48:00,SystemResetWarning,0832.5,4.98,000.00,029.2,026.2,000.0,037.6,030.6,18.9,0000.0,0004.95,0010.97,0004.25
2023-07-18 13:49:00,SystemResetWarning,0832.5,5.00,000.00,029.2,026.6,000.0,037.7,030.7,19.4,0000.0,0004.91,0010.98,0004.26
2023-07-18 13:50:00,SystemResetWarning,0832.5,5.01,000.00,029.2,026.9,000.0,037.7,030.7,19.5,0000.0,0004.93,0011.11,0004.26
2023-07-18 13:51:00,SystemResetWarning,0832.5,5.00,000.00,029.2,027.2,000.0,037.7,030.8,19.3,0000.0,0004.90,0011.00,0004.26
2023-07-18 13:52:00,SystemResetWarning,0832.6,4.99,000.00,029.3,027.5,000.0,037.7,030.8,19.9,0000.0,0004.88,0011.03,0004.25
2023-07-18 13:53:00,SystemResetWarning,0832.6,5.00,000.00,029.3,027.7,000.0,037.7,030.9,19.4,0000.0,0004.82,0010.86,0004.24
2023-07-18 13:54:00,SystemResetWarning,0832.6,5.00,000.00,029.3,027.9,000.0,037.7,031.0,19.5,0000.0,0004.81,0009.79,0004.24
2023-07-18 13:55:00,SystemResetWarning,0832.6,5.00,000.00,029.4,028.1,000.0,037.8,031.0,20.0,0000.0,0004.80,0009.78,0004.22
2023-07-18 13:56:00,SystemResetWarning,0832.6,5.00,000.00,029.4,028.1,000.0,037.8,031.1,20.6,0000.0,0004.74,0010.09,0004.20
2023-07-18 13:57:00,SystemResetWarning,0832.6,4.98,000.00,029.4,026.7,000.0,037.6,031.0,21.1,0000.0,0004.71,0009.80,0004.18
2023-07-18 13:58:00,SystemResetWarning,0832.5,5.01,000.00,029.3,025.4,000.0,037.5,030.7,21.0,0000.0,0004.70,0010.02,0004.16
2023-07-18 13:59:00,SystemResetWarning,0832.5,5.02,000.00,029.3,025.6,000.0,037.5,030.7,20.8,0000.0,0004.69,0010.34,0004.16
